| time (UTC) | temp F | wind direction | speed MPH | gust MPH | rain 1hr in | rain 24hr in | rain mn in | humidity % | barometer mb |
| 20260505182905 | 64 | 141 | 5.0 | 12.0 | 0.00 | 0.00 | 0.00 | 57 | 1016.4 |
| 20260505182405 | 64 | 128 | 4.0 | 12.0 | 0.00 | 0.00 | 0.00 | 56 | 1016.3 |
| 20260505181905 | 65 | 41 | 2.0 | 8.0 | 0.00 | 0.00 | 0.00 | 56 | 1016.3 |
| 20260505181405 | 65 | 47 | 1.0 | 6.0 | 0.00 | 0.00 | 0.00 | 57 | 1016.2 |
| 20260505180405 | 66 | 58 | 3.0 | 9.0 | 0.00 | 0.00 | 0.00 | 55 | 1016.3 |
| 20260505175905 | 66 | 79 | 2.0 | 9.0 | 0.00 | 0.00 | 0.00 | 56 | 1016.2 |
| 20260505175405 | 66 | 93 | 3.0 | 10.0 | 0.00 | 0.00 | 0.00 | 56 | 1016.3 |
| 20260505174905 | 66 | 129 | 4.0 | 12.0 | 0.00 | 0.00 | 0.00 | 55 | 1016.2 |
| 20260505174405 | 66 | 116 | 4.0 | 9.0 | 0.00 | 0.00 | 0.00 | 56 | 1016.2 |
| 20260505173905 | 66 | 87 | 3.0 | 13.0 | 0.00 | 0.00 | 0.00 | 56 | 1016.1 |
| 20260505173406 | 66 | 152 | 2.0 | 12.0 | 0.00 | 0.00 | 0.00 | 55 | 1016.2 |
| 20260505172905 | 66 | 97 | 3.0 | 20.0 | 0.00 | 0.00 | 0.00 | 54 | 1016.2 |
| 20260505172405 | 67 | 105 | 3.0 | 14.0 | 0.00 | 0.00 | 0.00 | 53 | 1016.2 |
| 20260505171905 | 67 | 131 | 6.0 | 12.0 | 0.00 | 0.00 | 0.00 | 53 | 1016.3 |
| 20260505165905 | 67 | 63 | 1.0 | 12.0 | 0.00 | 0.00 | 0.00 | 54 | 1016.2 |
| 20260505165405 | 67 | 106 | 5.0 | 12.0 | 0.00 | 0.00 | 0.00 | 54 | 1016.2 |
| 20260505164905 | 67 | 50 | 2.0 | 9.0 | 0.00 | 0.00 | 0.00 | 54 | 1016.2 |
| 20260505163905 | 67 | 131 | 2.0 | 8.0 | 0.00 | 0.00 | 0.00 | 53 | 1016.1 |
| 20260505163405 | 67 | 128 | 3.0 | 9.0 | 0.00 | 0.00 | 0.00 | 53 | 1016.2 |
| 20260505162405 | 67 | 98 | 1.0 | 10.0 | 0.00 | 0.00 | 0.00 | 53 | 1016.1 |
| 20260505161906 | 67 | 214 | 2.0 | 9.0 | 0.00 | 0.00 | 0.00 | 54 | 1016.1 |
| 20260505161405 | 67 | 67 | 3.0 | 9.0 | 0.00 | 0.00 | 0.00 | 54 | 1016.1 |
| 20260505160905 | 67 | 46 | 0.0 | 9.0 | 0.00 | 0.00 | 0.00 | 53 | 1016.2 |
| 20260505160406 | 68 | 121 | 3.0 | 10.0 | 0.00 | 0.00 | 0.00 | 53 | 1016.2 |
| 20260505152905 | 68 | 151 | 2.0 | 8.0 | 0.00 | 0.00 | 0.00 | 49 | 1016.4 |
| 20260505152405 | 69 | 177 | 3.0 | 8.0 | 0.00 | 0.00 | 0.00 | 48 | 1016.6 |
| 20260505151405 | 69 | 119 | 2.0 | 12.0 | 0.00 | 0.00 | 0.00 | 49 | 1016.5 |
| 20260505150905 | 68 | 140 | 6.0 | 14.0 | 0.00 | 0.00 | 0.00 | 50 | 1016.6 |
| 20260505150405 | 69 | 135 | 5.0 | 10.0 | 0.00 | 0.00 | 0.00 | 50 | 1016.6 |
| 20260505140405 | 67 | 56 | 0.0 | 13.0 | 0.00 | 0.00 | 0.00 | 53 | 1017.1 |
| 20260505124905 | 67 | 75 | 1.0 | 6.0 | 0.00 | 0.00 | 0.00 | 53 | 1017.6 |
| 20260505124405 | 67 | 121 | 5.0 | 9.0 | 0.00 | 0.00 | 0.00 | 50 | 1017.5 |
| 20260505123905 | 67 | 135 | 1.0 | 7.0 | 0.00 | 0.00 | 0.00 | 53 | 1017.6 |
| 20260505123405 | 66 | 136 | 3.0 | 10.0 | 0.00 | 0.00 | 0.00 | 54 | 1017.7 |
| 20260505122905 | 65 | 123 | 0.0 | 7.0 | 0.00 | 0.00 | 0.00 | 56 | 1017.7 |
| 20260505122405 | 65 | 58 | 1.0 | 7.0 | 0.00 | 0.00 | 0.00 | 54 | 1017.7 |
| 20260505121905 | 64 | 141 | 1.0 | 10.0 | 0.00 | 0.00 | 0.00 | 56 | 1017.8 |
| 20260505121405 | 64 | 87 | 0.0 | 5.0 | 0.00 | 0.00 | 0.00 | 57 | 1017.9 |
| 20260505120905 | 64 | 174 | 1.0 | 8.0 | 0.00 | 0.00 | 0.00 | 56 | 1017.9 |
| 20260505120405 | 64 | 232 | 3.0 | 12.0 | 0.00 | 0.00 | 0.00 | 54 | 1017.8 |
| 20260505115905 | 64 | 54 | 0.0 | 8.0 | 0.00 | 0.00 | 0.00 | 55 | 1017.9 |
| 20260505115405 | 64 | 131 | 1.0 | 9.0 | 0.00 | 0.00 | 0.00 | 55 | 1017.9 |
| 20260505114905 | 64 | 82 | 2.0 | 9.0 | 0.00 | 0.00 | 0.00 | 54 | 1018.0 |
| 20260505114406 | 64 | 95 | 5.0 | 15.0 | 0.00 | 0.00 | 0.00 | 53 | 1017.9 |
| 20260505113905 | 65 | 72 | 4.0 | 12.0 | 0.00 | 0.00 | 0.00 | 54 | 1018.0 |
| 20260505113405 | 65 | 112 | 2.0 | 8.0 | 0.00 | 0.00 | 0.00 | 55 | 1018.0 |
| 20260505112405 | 65 | 211 | 5.0 | 12.0 | 0.00 | 0.00 | 0.00 | 52 | 1018.0 |
| 20260505111905 | 66 | 246 | 6.0 | 14.0 | 0.00 | 0.00 | 0.00 | 50 | 1018.0 |
| 20260505111405 | 65 | 166 | 2.0 | 8.0 | 0.00 | 0.00 | 0.00 | 52 | 1018.0 |
| 20260505110904 | 64 | 220 | 2.0 | 8.0 | 0.00 | 0.00 | 0.00 | 53 | 1018.0 |
| 20260505110405 | 65 | 105 | 3.0 | 8.0 | 0.00 | 0.00 | 0.00 | 54 | 1018.1 |
| 20260505101905 | 63 | 148 | 1.0 | 7.0 | 0.00 | 0.00 | 0.00 | 57 | 1018.0 |
| 20260505101405 | 64 | 114 | 1.0 | 10.0 | 0.00 | 0.00 | 0.00 | 56 | 1018.1 |
| 20260505100906 | 64 | 144 | 4.0 | 13.0 | 0.00 | 0.00 | 0.00 | 57 | 1018.1 |
| 20260505100405 | 63 | 223 | 3.0 | 7.0 | 0.00 | 0.00 | 0.00 | 59 | 1018.0 |
| 20260505095905 | 62 | 165 | 2.0 | 8.0 | 0.00 | 0.00 | 0.00 | 62 | 1018.1 |
| 20260505094905 | 62 | 61 | 0.0 | 7.0 | 0.00 | 0.00 | 0.00 | 62 | 1018.1 |
| 20260505094405 | 61 | 281 | 0.0 | 5.0 | 0.00 | 0.00 | 0.00 | 62 | 1018.1 |
| 20260505093905 | 61 | 66 | 0.0 | 7.0 | 0.00 | 0.00 | 0.00 | 64 | 1018.1 |
| 20260505092907 | 62 | 135 | 4.0 | 10.0 | 0.00 | 0.00 | 0.00 | 62 | 1018.1 |
| 20260505092405 | 63 | 132 | 1.0 | 12.0 | 0.00 | 0.00 | 0.00 | 62 | 1018.0 |
| 20260505091905 | 62 | 263 | 0.0 | 12.0 | 0.00 | 0.00 | 0.00 | 61 | 1018.0 |
| 20260505091405 | 62 | 151 | 1.0 | 7.0 | 0.00 | 0.00 | 0.00 | 60 | 1018.1 |
| 20260505090905 | 62 | 320 | 1.0 | 6.0 | 0.00 | 0.00 | 0.00 | 62 | 1018.0 |
| 20260505090405 | 61 | 230 | 1.0 | 9.0 | 0.00 | 0.00 | 0.00 | 66 | 1018.1 |
| 20260505085905 | 60 | 304 | 1.0 | 3.0 | 0.00 | 0.00 | 0.00 | 70 | 1018.1 |
| 20260505085405 | 60 | 237 | 0.0 | 5.0 | 0.00 | 0.00 | 0.00 | 73 | 1018.1 |
| 20260505084905 | 59 | 142 | 0.0 | 6.0 | 0.00 | 0.00 | 0.00 | 74 | 1018.2 |
| 20260505084405 | 59 | 148 | 1.0 | 7.0 | 0.00 | 0.00 | 0.00 | 75 | 1018.2 |
| 20260505083905 | 59 | 125 | 1.0 | 8.0 | 0.00 | 0.00 | 0.00 | 74 | 1018.2 |
| 20260505082905 | 59 | 108 | 1.0 | 5.0 | 0.00 | 0.01 | 0.00 | 77 | 1018.1 |
| 20260505082405 | 59 | 103 | 1.0 | 7.0 | 0.00 | 0.01 | 0.00 | 77 | 1018.2 |
| 20260505081905 | 58 | 96 | 2.0 | 5.0 | 0.00 | 0.01 | 0.00 | 78 | 1018.1 |
| 20260505081405 | 58 | 125 | 1.0 | 5.0 | 0.00 | 0.01 | 0.00 | 80 | 1018.1 |
| 20260505080405 | 57 | 40 | 2.0 | 5.0 | 0.00 | 0.01 | 0.00 | 81 | 1018.1 |
| 20260505075905 | 56 | 51 | 2.0 | 7.0 | 0.00 | 0.01 | 0.00 | 81 | 1018.1 |
| 20260505075405 | 56 | 105 | 3.0 | 7.0 | 0.00 | 0.01 | 0.00 | 83 | 1018.1 |
| 20260505074905 | 55 | 130 | 1.0 | 6.0 | 0.00 | 0.01 | 0.00 | 83 | 1018.1 |
| 20260505074405 | 55 | 106 | 3.0 | 7.0 | 0.00 | 0.01 | 0.00 | 84 | 1018.0 |
| 20260505073905 | 55 | 97 | 3.0 | 8.0 | 0.00 | 0.01 | 0.00 | 85 | 1018.1 |
| 20260505073406 | 54 | 98 | 5.0 | 7.0 | 0.00 | 0.01 | 0.00 | 85 | 1018.0 |
| 20260505072905 | 54 | 100 | 3.0 | 8.0 | 0.00 | 0.01 | 0.00 | 85 | 1018.0 |
| 20260505071905 | 53 | 128 | 0.0 | 6.0 | 0.00 | 0.01 | 0.00 | 87 | 1017.9 |
| 20260505070905 | 52 | 94 | 1.0 | 3.0 | 0.00 | 0.01 | 0.00 | 89 | 1017.9 |
| 20260505070405 | 52 | 92 | 0.0 | 3.0 | 0.00 | 0.01 | 0.00 | 90 | 1017.9 |
| 20260505065905 | 51 | 92 | 1.0 | 5.0 | 0.00 | 0.01 | 0.00 | 90 | 1017.8 |
| 20260505064905 | 51 | 30 | 1.0 | 3.0 | 0.00 | 0.01 | 0.00 | 90 | 1017.7 |
| 20260505064405 | 51 | 30 | 0.0 | 3.0 | 0.00 | 0.01 | 0.00 | 91 | 1017.8 |
| 20260505063905 | 51 | 30 | 0.0 | 0.0 | 0.00 | 0.01 | 0.00 | 91 | 1017.7 |
| 20260505063405 | 51 | 30 | 0.0 | 3.0 | 0.00 | 0.01 | 0.00 | 92 | 1017.7 |
| 20260505062905 | 50 | 30 | 0.0 | 0.0 | 0.00 | 0.01 | 0.00 | 92 | 1017.7 |
| 20260505062406 | 50 | 30 | 0.0 | 0.0 | 0.00 | 0.01 | 0.00 | 92 | 1017.6 |
| 20260505061905 | 50 | 30 | 0.0 | 2.0 | 0.00 | 0.01 | 0.00 | 93 | 1017.6 |
| 20260505061405 | 49 | 30 | 0.0 | 3.0 | 0.00 | 0.01 | 0.00 | 93 | 1017.6 |
| 20260505060905 | 49 | 30 | 0.0 | 2.0 | 0.00 | 0.01 | 0.00 | 93 | 1017.5 |
| 20260505060405 | 49 | 30 | 0.0 | 1.0 | 0.00 | 0.01 | 0.00 | 92 | 1017.4 |
| 20260505055905 | 49 | 30 | 0.0 | 0.0 | 0.00 | 0.01 | 0.00 | 92 | 1017.4 |
| 20260505055405 | 49 | 30 | 0.0 | 2.0 | 0.00 | 0.01 | 0.00 | 92 | 1017.3 |
| 20260505054905 | 49 | 30 | 2.0 | 5.0 | 0.00 | 0.01 | 0.00 | 92 | 1017.3 |
| 20260505053905 | 49 | 30 | 0.0 | 1.0 | 0.00 | 0.01 | 0.00 | 92 | 1017.4 |
| 20260505053405 | 49 | 30 | 0.0 | 0.0 | 0.00 | 0.01 | 0.00 | 92 | 1017.3 |
| 20260505052905 | 49 | 30 | 0.0 | 0.0 | 0.00 | 0.01 | 0.00 | 92 | 1017.3 |
| 20260505052405 | 49 | 30 | 0.0 | 0.0 | 0.00 | 0.01 | 0.00 | 92 | 1017.3 |
| 20260505051905 | 49 | 30 | 0.0 | 0.0 | 0.00 | 0.01 | 0.00 | 92 | 1017.2 |
| 20260505050905 | 49 | 30 | 1.0 | 3.0 | 0.00 | 0.01 | 0.00 | 92 | 1017.1 |
| 20260505050405 | 49 | 30 | 0.0 | 5.0 | 0.00 | 0.01 | 0.00 | 91 | 1017.1 |
| 20260505041404 | 50 | 30 | 0.0 | 0.0 | 0.00 | 0.01 | 0.00 | 91 | 1017.3 |
| 20260505040905 | 50 | 30 | 0.0 | 0.0 | 0.00 | 0.01 | 0.00 | 91 | 1017.4 |
| 20260505040404 | 49 | 30 | 0.0 | 0.0 | 0.00 | 0.01 | 0.00 | 90 | 1017.3 |
| 20260505035905 | 50 | 30 | 0.0 | 0.0 | 0.00 | 0.01 | 0.00 | 90 | 1017.4 |
| 20260505034905 | 50 | 30 | 0.0 | 0.0 | 0.00 | 0.01 | 0.00 | 90 | 1017.4 |
| 20260505033905 | 50 | 30 | 0.0 | 0.0 | 0.00 | 0.01 | 0.00 | 89 | 1017.4 |
| 20260505033405 | 50 | 30 | 0.0 | 0.0 | 0.00 | 0.01 | 0.00 | 89 | 1017.4 |
| 20260505032405 | 50 | 30 | 2.0 | 5.0 | 0.00 | 0.01 | 0.00 | 89 | 1017.4 |
| 20260505031904 | 50 | 30 | 2.0 | 5.0 | 0.00 | 0.01 | 0.00 | 89 | 1017.4 |
| 20260505031405 | 50 | 30 | 0.0 | 2.0 | 0.00 | 0.01 | 0.00 | 89 | 1017.4 |
| 20260505030905 | 50 | 30 | 2.0 | 5.0 | 0.00 | 0.01 | 0.00 | 89 | 1017.5 |
| 20260505030405 | 51 | 30 | 1.0 | 5.0 | 0.00 | 0.01 | 0.00 | 88 | 1017.5 |
| 20260505025905 | 51 | 28 | 2.0 | 5.0 | 0.00 | 0.01 | 0.00 | 88 | 1017.5 |
| 20260505025404 | 51 | 28 | 2.0 | 5.0 | 0.00 | 0.01 | 0.00 | 88 | 1017.5 |
| 20260505024404 | 51 | 28 | 1.0 | 5.0 | 0.00 | 0.01 | 0.00 | 87 | 1017.6 |
| 20260505023905 | 52 | 117 | 1.0 | 5.0 | 0.00 | 0.01 | 0.00 | 87 | 1017.5 |
| 20260505023404 | 52 | 117 | 1.0 | 5.0 | 0.00 | 0.01 | 0.00 | 87 | 1017.6 |
| 20260505022904 | 52 | 117 | 0.0 | 5.0 | 0.00 | 0.01 | 0.00 | 87 | 1017.5 |
| 20260505022405 | 52 | 117 | 2.0 | 5.0 | 0.00 | 0.01 | 0.00 | 87 | 1017.5 |
| 20260505021906 | 52 | 117 | 0.0 | 5.0 | 0.00 | 0.01 | 0.00 | 87 | 1017.5 |
| 20260505021405 | 52 | 117 | 2.0 | 6.0 | 0.00 | 0.01 | 0.00 | 87 | 1017.5 |
| 20260505020906 | 52 | 117 | 1.0 | 6.0 | 0.00 | 0.01 | 0.00 | 87 | 1017.5 |
| 20260505020405 | 52 | 117 | 0.0 | 3.0 | 0.00 | 0.01 | 0.00 | 87 | 1017.5 |
| 20260505015904 | 51 | 117 | 1.0 | 3.0 | 0.00 | 0.01 | 0.00 | 87 | 1017.6 |
| 20260505015404 | 52 | 117 | 2.0 | 5.0 | 0.00 | 0.01 | 0.00 | 87 | 1017.6 |
| 20260505014904 | 52 | 117 | 2.0 | 3.0 | 0.00 | 0.01 | 0.00 | 86 | 1017.6 |
| 20260505014405 | 52 | 117 | 0.0 | 3.0 | 0.00 | 0.01 | 0.00 | 86 | 1017.6 |
| 20260505013904 | 52 | 117 | 0.0 | 6.0 | 0.00 | 0.01 | 0.00 | 86 | 1017.7 |
| 20260505013404 | 52 | 117 | 0.0 | 7.0 | 0.00 | 0.01 | 0.00 | 86 | 1017.8 |
| 20260505012904 | 52 | 121 | 0.0 | 3.0 | 0.00 | 0.01 | 0.00 | 86 | 1017.8 |
| 20260505012404 | 52 | 121 | 1.0 | 3.0 | 0.00 | 0.01 | 0.00 | 86 | 1017.8 |
| 20260505011904 | 52 | 116 | 1.0 | 6.0 | 0.00 | 0.01 | 0.00 | 86 | 1018.0 |
| 20260505010905 | 52 | 69 | 0.0 | 2.0 | 0.00 | 0.01 | 0.00 | 86 | 1018.1 |
| 20260505010405 | 52 | 69 | 1.0 | 3.0 | 0.00 | 0.01 | 0.00 | 86 | 1018.1 |
| 20260505005905 | 52 | 69 | 1.0 | 5.0 | 0.00 | 0.01 | 0.00 | 85 | 1018.2 |
| 20260505005405 | 52 | 69 | 1.0 | 5.0 | 0.00 | 0.01 | 0.00 | 85 | 1018.3 |
| 20260505004905 | 53 | 69 | 0.0 | 1.0 | 0.00 | 0.01 | 0.00 | 84 | 1018.4 |
| 20260505004405 | 53 | 69 | 0.0 | 2.0 | 0.00 | 0.01 | 0.00 | 84 | 1018.4 |
| 20260505002904 | 53 | 146 | 0.0 | 3.0 | 0.00 | 0.01 | 0.00 | 84 | 1018.4 |
| 20260505002404 | 53 | 167 | 0.0 | 2.0 | 0.00 | 0.01 | 0.00 | 84 | 1018.4 |
| 20260505001904 | 53 | 81 | 0.0 | 5.0 | 0.00 | 0.01 | 0.00 | 84 | 1018.4 |
| 20260505001405 | 53 | 48 | 2.0 | 5.0 | 0.00 | 0.01 | 0.00 | 84 | 1018.6 |
| 20260505000904 | 53 | 48 | 2.0 | 5.0 | 0.00 | 0.01 | 0.00 | 83 | 1018.6 |
| 20260505000405 | 53 | 48 | 0.0 | 5.0 | 0.00 | 0.01 | 0.00 | 83 | 1018.6 |
| 20260504235405 | 53 | 86 | 1.0 | 5.0 | 0.00 | 0.01 | 0.00 | 83 | 1018.7 |
| 20260504234904 | 54 | 86 | 1.0 | 3.0 | 0.00 | 0.01 | 0.00 | 82 | 1018.7 |
| 20260504234404 | 54 | 92 | 2.0 | 5.0 | 0.00 | 0.01 | 0.00 | 82 | 1018.6 |
| 20260504233905 | 54 | 86 | 1.0 | 5.0 | 0.00 | 0.01 | 0.00 | 82 | 1018.7 |
| 20260504233405 | 54 | 83 | 1.0 | 3.0 | 0.00 | 0.01 | 0.00 | 81 | 1018.7 |
| 20260504232905 | 54 | 159 | 0.0 | 5.0 | 0.00 | 0.01 | 0.00 | 81 | 1018.7 |
| 20260504231905 | 54 | 96 | 1.0 | 5.0 | 0.00 | 0.01 | 0.00 | 80 | 1018.6 |
| 20260504231404 | 54 | 103 | 1.0 | 5.0 | 0.00 | 0.01 | 0.00 | 80 | 1018.7 |
| 20260504230906 | 54 | 124 | 3.0 | 8.0 | 0.00 | 0.01 | 0.00 | 80 | 1018.7 |
| 20260504230405 | 55 | 161 | 3.0 | 8.0 | 0.00 | 0.01 | 0.00 | 79 | 1018.7 |
| 20260504225405 | 55 | 139 | 2.0 | 9.0 | 0.00 | 0.01 | 0.01 | 79 | 1018.7 |
| 20260504224404 | 55 | 209 | 0.0 | 5.0 | 0.00 | 0.01 | 0.01 | 79 | 1018.7 |
| 20260504223904 | 55 | 148 | 0.0 | 6.0 | 0.00 | 0.01 | 0.01 | 79 | 1018.7 |
| 20260504223405 | 55 | 138 | 1.0 | 7.0 | 0.00 | 0.01 | 0.01 | 79 | 1018.7 |
| 20260504222904 | 55 | 46 | 3.0 | 9.0 | 0.00 | 0.01 | 0.01 | 78 | 1018.7 |
| 20260504222404 | 55 | 144 | 4.0 | 8.0 | 0.00 | 0.01 | 0.01 | 78 | 1018.8 |
| 20260504221904 | 55 | 138 | 3.0 | 7.0 | 0.00 | 0.01 | 0.01 | 78 | 1018.7 |
| 20260504221406 | 55 | 148 | 1.0 | 5.0 | 0.00 | 0.01 | 0.01 | 78 | 1018.8 |
| 20260504220405 | 55 | 94 | 0.0 | 2.0 | 0.00 | 0.01 | 0.01 | 77 | 1018.7 |
| 20260504215907 | 55 | 100 | 1.0 | 7.0 | 0.00 | 0.01 | 0.01 | 77 | 1018.7 |
| 20260504215406 | 55 | 143 | 0.0 | 0.0 | 0.00 | 0.01 | 0.01 | 77 | 1018.7 |
| 20260504214904 | 55 | 143 | 0.0 | 6.0 | 0.00 | 0.01 | 0.01 | 76 | 1018.8 |
| 20260504213907 | 55 | 126 | 2.0 | 7.0 | 0.00 | 0.01 | 0.01 | 76 | 1018.8 |
| 20260504213405 | 56 | 112 | 1.0 | 5.0 | 0.00 | 0.01 | 0.01 | 76 | 1018.8 |
| 20260504212905 | 56 | 119 | 0.0 | 0.0 | 0.00 | 0.01 | 0.01 | 75 | 1018.8 |
| 20260504212405 | 56 | 119 | 0.0 | 0.0 | 0.00 | 0.01 | 0.01 | 75 | 1018.7 |
| 20260504211905 | 56 | 166 | 1.0 | 6.0 | 0.00 | 0.01 | 0.01 | 74 | 1018.7 |
| 20260504211404 | 56 | 128 | 3.0 | 10.0 | 0.00 | 0.01 | 0.01 | 74 | 1018.6 |
| 20260504210905 | 56 | 116 | 0.0 | 3.0 | 0.00 | 0.01 | 0.01 | 74 | 1018.6 |
| 20260504210405 | 56 | 90 | 0.0 | 3.0 | 0.00 | 0.01 | 0.01 | 73 | 1018.6 |
| 20260504205905 | 57 | 98 | 0.0 | 2.0 | 0.00 | 0.01 | 0.01 | 73 | 1018.5 |
| 20260504205406 | 57 | 108 | 0.0 | 5.0 | 0.00 | 0.01 | 0.01 | 72 | 1018.5 |
| 20260504204905 | 57 | 53 | 0.0 | 5.0 | 0.00 | 0.01 | 0.01 | 72 | 1018.5 |
| 20260504204404 | 57 | 83 | 1.0 | 9.0 | 0.00 | 0.01 | 0.01 | 72 | 1018.4 |
| 20260504203405 | 57 | 99 | 0.0 | 3.0 | 0.00 | 0.01 | 0.01 | 71 | 1018.1 |
| 20260504202904 | 58 | 68 | 0.0 | 3.0 | 0.00 | 0.01 | 0.01 | 70 | 1018.1 |
| 20260504202405 | 58 | 166 | 2.0 | 8.0 | 0.00 | 0.01 | 0.01 | 69 | 1018.0 |
| 20260504200905 | 58 | 312 | 0.0 | 8.0 | 0.00 | 0.01 | 0.01 | 66 | 1017.9 |
| 20260504200406 | 58 | 114 | 4.0 | 9.0 | 0.00 | 0.01 | 0.01 | 66 | 1017.8 |
| 20260504195904 | 59 | 93 | 0.0 | 6.0 | 0.00 | 0.01 | 0.01 | 66 | 1017.8 |
| 20260504195406 | 59 | 36 | 0.0 | 5.0 | 0.00 | 0.01 | 0.01 | 65 | 1017.7 |
| 20260504194904 | 59 | 100 | 2.0 | 7.0 | 0.00 | 0.01 | 0.01 | 64 | 1017.6 |
| 20260504194405 | 59 | 139 | 1.0 | 6.0 | 0.00 | 0.01 | 0.01 | 64 | 1017.6 |
| 20260504193905 | 59 | 155 | 0.0 | 1.0 | 0.00 | 0.01 | 0.01 | 64 | 1017.5 |
| 20260504193404 | 60 | 155 | 0.0 | 6.0 | 0.00 | 0.01 | 0.01 | 64 | 1017.4 |
| 20260504192905 | 60 | 113 | 1.0 | 8.0 | 0.00 | 0.01 | 0.01 | 64 | 1017.5 |
| 20260504192405 | 60 | 80 | 1.0 | 8.0 | 0.00 | 0.01 | 0.01 | 64 | 1017.4 |
| 20260504191906 | 60 | 109 | 2.0 | 6.0 | 0.00 | 0.01 | 0.01 | 63 | 1017.4 |
| 20260504190905 | 61 | 48 | 2.0 | 18.0 | 0.00 | 0.01 | 0.01 | 62 | 1017.2 |
| 20260504190405 | 61 | 102 | 2.0 | 13.0 | 0.00 | 0.01 | 0.01 | 61 | 1017.2 |
| 20260504185905 | 61 | 99 | 4.0 | 13.0 | 0.00 | 0.01 | 0.01 | 60 | 1017.1 |
| 20260504185405 | 61 | 159 | 3.0 | 12.0 | 0.00 | 0.01 | 0.01 | 59 | 1017.1 |
| 20260504184906 | 62 | 114 | 6.0 | 16.0 | 0.00 | 0.01 | 0.01 | 58 | 1017.1 |
| 20260504184405 | 62 | 117 | 3.0 | 10.0 | 0.00 | 0.01 | 0.01 | 58 | 1017.0 |
| 20260504183406 | 62 | 70 | 2.0 | 7.0 | 0.00 | 0.01 | 0.01 | 56 | 1017.0 |